Weather in Voznesenskaya

Russia / Krasnodar Krai     44°33′05″N   41°01′42″E
temp.,
°C
wind,
m/s
gust,
m/s
humid.,
%
clouds,
%
prec.,
mm/h
press.,
hPa
HPBL,
m
27 october, wed
wed2700:00+1ese24870 0.0 103055
03:000se23851 0.0 102940
06:000se23800 0.0 102829
09:00+6se12520 0.0 1026172
12:00+11n11360 0.0 1025525
15:00+12nw11350 0.0 1023688
18:00+7sw11550 0.0 102410
21:00+5ssw33610 0.0 102421
28 october, thu
thu2800:00+4ssw33720 0.0 102420
03:00+4ssw33760 0.0 102420
06:00+3ssw22760 0.0 102410
09:00+7w12590 0.0 1025200
12:00+11nnw22490 0.0 1024706
15:00+11nw32541 0.0 1023958
18:00+6n22820 0.0 102413
21:00+5s11878 0.0 102510
29 october, fri
fri2900:00+5s228956 0.0 102524
03:00+4s238760 0.0 102555
06:00+3s229084 0.0 102611
09:00+7sse117485 0.0 1026189
12:00+11nne32564 0.0 1024925
15:00+12ne33494 0.0 10241125
18:00+7ene366234 0.0 102697
21:00+5e39625 0.0 1027161
30 october, sat
sat3000:00+5ese4105840 0.0 1027191
03:00+4ese310657 0.0 1027200
06:00+4ese411736 0.0 1028260
09:00+7ese6126330 0.0 1028503
12:00+12e79507 0.0 10271059
15:00+12e774836 0.0 10261067
18:00+8e613550 0.0 1028414
21:00+6ese512580 0.0 1027329
31 october, sun
sun3100:00+5ese35710 0.0 102790
03:00+5se33800 0.0 102634
06:00+5ese3381100 0.0 102544
09:00+9ese4664100 0.0 1024226
12:00+14ese674981 0.0 1022590
15:00+14e775799 0.0 1021614
18:00+8ese61284100 0.0 1022310
21:00+8ese3485100 0.0 102195